Location: Bronschhofen
(47.4788°N, 9.0353°E)
Time: 20:26:20
(UTC+00:00)

NOSS 3-1 (C) - Pass Details

Date: 20 May 2022
Orbit: 706 x 1502 km, 63.4° (Epoch: 20 May)

Event Time Altitude Azimuth Distance (km) Brightness Sun altitude
Rises 00:35:35 0° 318° (NW) 3,898 7.0 -20.5°
Reaches altitude 10° 00:38:04 10° 317° (NW) 3,044 6.4 -20.4°
Maximum altitude 00:45:30 75° 234° (SW) 1,349 4.0 -19.9°
Drops below altitude 10° 00:54:15 10° 152° (SSE) 3,550 6.1 -19.4°
Enters shadow 00:56:08 - 151° (SSE) 4,171 6.4 -19.2°
